KN4URY Weather Reports


Display with metric or nautical units.
time (UTC)temp
F
wind
direction
speed
MPH
gust
MPH
rain 1hr
in
rain 24hr
in
rain mn
in
humidity
%
barometer
mb
20260507020355 68 341 2.0 5.0 0.00 0.04 0.04 86 1010.1
20260507015323 68 341 2.0 4.0 0.00 0.04 0.04 86 1010.1
20260507014317 68 341 2.0 8.0 0.00 0.04 0.04 86 1010.6
20260507013332 68 341 2.0 8.0 0.00 0.04 0.04 86 1010.4
20260507012319 68 341 1.0 7.0 0.00 0.04 0.04 86 1010.2
20260507011334 68 341 3.0 6.0 0.00 0.04 0.04 86 1010.2
20260507010343 68 341 1.0 5.0 0.00 0.04 0.04 86 1010.0
20260507005359 68 341 2.0 9.0 0.00 0.04 0.04 86 1009.9
20260507004327 68 341 1.0 6.0 0.00 0.04 0.04 86 1009.8
20260507003314 68 341 2.0 6.0 0.00 0.04 0.04 86 1010.0
20260507002329 68 341 2.0 4.0 0.00 0.04 0.04 85 1009.9
20260507001318 69 341 1.0 7.0 0.00 0.04 0.04 85 1010.1
20260507000332 69 341 1.0 5.0 0.00 0.04 0.04 85 1010.3
20260506235321 69 341 2.0 7.0 0.00 0.04 0.04 85 1010.2
20260506234315 69 341 1.0 10.0 0.00 0.04 0.04 86 1010.7
20260506233330 69 341 2.0 6.0 0.00 0.04 0.04 85 1010.4
20260506232344 69 341 1.0 4.0 0.00 0.04 0.04 85 1010.4
20260506231336 69 341 0.0 3.0 0.00 0.04 0.04 84 1010.2
20260506225324 70 341 2.0 6.0 0.00 0.04 0.04 82 1010.4
20260506224313 70 341 2.0 6.0 0.00 0.04 0.04 82 1010.4
20260506223329 70 341 2.0 9.0 0.00 0.04 0.04 82 1010.3
20260506222317 70 341 2.0 6.0 0.00 0.04 0.04 82 1010.3
20260506221353 70 341 3.0 10.0 0.00 0.04 0.04 81 1010.2
20260506220321 70 341 4.0 13.0 0.00 0.04 0.04 80 1010.2
20260506215336 70 341 4.0 10.0 0.00 0.04 0.04 80 1010.2
20260506214322 70 341 3.0 12.0 0.00 0.04 0.04 80 1010.2
20260506213337 71 341 5.0 10.0 0.00 0.04 0.04 79 1010.0
20260506212324 71 341 6.0 10.0 0.00 0.04 0.04 78 1010.1
20260506211339 71 341 5.0 16.0 0.00 0.04 0.04 77 1010.2
20260506210334 72 341 5.0 16.0 0.00 0.04 0.04 77 1010.3
20260506205325 71 341 3.0 11.0 0.00 0.04 0.04 79 1010.2
20260506204314 70 341 3.0 8.0 0.00 0.04 0.04 79 1010.1
20260506203330 70 341 3.0 9.0 0.00 0.04 0.04 80 1010.0
20260506202343 69 341 3.0 10.0 0.00 0.04 0.04 80 1010.1
20260506201355 69 341 3.0 10.0 0.00 0.04 0.04 80 1010.0
20260506200323 69 341 4.0 17.0 0.00 0.04 0.04 80 1009.9
20260506195357 69 341 4.0 18.0 0.00 0.04 0.04 80 1009.9
20260506194325 68 341 3.0 16.0 0.00 0.04 0.04 80 1009.7
20260506193314 68 341 4.0 12.0 0.00 0.04 0.04 80 1009.4
20260506192348 68 341 4.0 9.0 0.00 0.04 0.04 81 1009.3
20260506191340 68 341 3.0 18.0 0.00 0.04 0.04 82 1009.4
20260506190336 68 341 5.0 15.0 0.00 0.04 0.04 82 1009.7
20260506185323 68 341 5.0 16.0 0.00 0.04 0.04 83 1010.0
20260506184332 68 341 3.0 13.0 0.00 0.04 0.04 82 1010.1
20260506183319 67 341 4.0 12.0 0.00 0.04 0.04 83 1010.5
20260506182334 67 341 3.0 12.0 0.00 0.04 0.04 83 1011.0
20260506181328 67 341 6.0 17.0 0.00 0.04 0.04 83 1011.4
20260506180317 66 341 3.0 14.0 0.00 0.04 0.04 85 1011.8
20260506175333 66 341 5.0 16.0 0.00 0.04 0.04 84 1012.2
20260506174322 65 341 4.0 11.0 0.00 0.04 0.04 86 1012.0
20260506173336 65 341 3.0 12.0 0.00 0.04 0.04 88 1012.3
20260506172322 65 341 3.0 10.0 0.00 0.04 0.04 87 1012.2
20260506171337 65 341 2.0 14.0 0.00 0.04 0.04 88 1012.2
20260506170325 65 341 4.0 10.0 0.00 0.04 0.04 88 1012.0
20260506165312 64 341 2.0 13.0 0.00 0.04 0.04 89 1011.8
20260506164348 63 341 3.0 8.0 0.01 0.04 0.04 90 1011.8
20260506163315 63 341 2.0 10.0 0.01 0.04 0.04 90 1011.8
20260506162319 62 341 3.0 10.0 0.02 0.04 0.04 91 1011.6
20260506161333 62 341 4.0 10.0 0.02 0.04 0.04 91 1011.9
20260506160322 62 341 4.0 10.0 0.03 0.04 0.04 91 1011.8
20260506155337 62 341 2.0 6.0 0.03 0.04 0.04 91 1011.8
20260506154331 62 341 3.0 7.0 0.02 0.03 0.03 91 1012.2
20260506153319 62 341 3.0 11.0 0.03 0.03 0.03 90 1012.6
20260506152329 62 341 3.0 9.0 0.02 0.02 0.02 88 1012.5
20260506151344 62 341 3.0 6.0 0.02 0.02 0.02 87 1012.4
20260506150339 62 341 4.0 9.0 0.01 0.01 0.01 86 1012.5
20260506145324 63 341 2.0 8.0 0.01 0.01 0.01 85 1012.5
20260506144313 63 341 3.0 9.0 0.01 0.01 0.01 83 1012.4
20260506143329 63 341 2.0 6.0 0.00 0.00 0.00 81 1012.2
20260506142319 63 341 2.0 5.0 0.00 0.00 0.00 82 1011.9
20260506141334 63 341 1.0 10.0 0.00 0.00 0.00 81 1012.0
20260506140328 64 341 2.0 13.0 0.00 0.00 0.00 79 1012.3
20260506135317 64 341 2.0 7.0 0.00 0.00 0.00 79 1012.2
20260506134332 64 341 4.0 14.0 0.00 0.00 0.00 78 1012.2
20260506133322 64 341 3.0 6.0 0.00 0.00 0.00 78 1012.2
20260506132337 64 341 3.0 8.0 0.00 0.00 0.00 77 1012.2
20260506131349 64 341 3.0 9.0 0.00 0.00 0.00 76 1012.4
20260506041326 67 341 2.0 8.0 0.00 0.00 0.00 68 1012.9
20260506040825 67 341 1.0 8.0 0.00 0.00 0.00 68 1012.9
20260506040320 67 341 3.0 8.0 0.00 0.00 0.00 68 1013.0
20260506035846 67 341 1.0 8.0 0.00 0.00 0.00 68 1012.9
20260506035323 68 341 3.0 8.0 0.00 0.00 0.00 67 1012.9
20260506034828 67 341 2.0 9.0 0.00 0.00 0.00 67 1012.9
20260506034328 67 341 2.0 12.0 0.00 0.00 0.00 67 1012.9
20260506033826 67 341 2.0 12.0 0.00 0.00 0.00 67 1013.0
20260506033325 68 341 2.0 6.0 0.00 0.00 0.00 66 1012.9
20260506032854 68 341 2.0 5.0 0.00 0.00 0.00 66 1012.9
20260506032331 68 341 1.0 4.0 0.00 0.00 0.00 66 1012.9
20260506031831 68 341 1.0 5.0 0.00 0.00 0.00 66 1013.0
20260506031327 68 341 2.0 5.0 0.00 0.00 0.00 66 1013.0
20260506030826 68 341 1.0 4.0 0.00 0.00 0.00 65 1013.0
20260506030351 68 341 0.0 5.0 0.00 0.00 0.00 65 1013.0
20260506025828 68 341 1.0 8.0 0.00 0.00 0.00 64 1013.0
20260506025325 68 341 3.0 8.0 0.00 0.00 0.00 64 1013.0
20260506024825 68 341 1.0 4.0 0.00 0.00 0.00 64 1012.9
20260506024324 68 341 1.0 4.0 0.00 0.00 0.00 63 1012.8
20260506023828 68 341 1.0 3.0 0.00 0.00 0.00 63 1012.9
20260506023326 68 341 1.0 4.0 0.00 0.00 0.00 62 1012.9
20260506022853 69 341 1.0 4.0 0.00 0.00 0.00 62 1013.0
20260506022327 69 341 1.0 3.0 0.00 0.00 0.00 61 1013.0
20260506021825 69 341 1.0 3.0 0.00 0.00 0.00 61 1012.9
20260506021323 69 341 0.0 3.0 0.00 0.00 0.00 61 1012.8